| << 5.5. | 7.5. >> |
|
Windrichtung in Grad |
Windgeschw. in m/s |
Windspitzen in m/s |
Temp.Minima in °C |
Temperatur in °C |
Temp.Maxima in °C |
Luftfeuchte in % |
Luftdruck in hPa |
Taupunkt in °C |
Niederschlag in mm |
|
|---|---|---|---|---|---|---|---|---|---|---|
| ▲ Maxima | 1,3 | 3,4 | 8,7 | 8,9 | 9,2 | 98,4 | 998,8 | 10,1 | 0,0 | |
| Ø Mittelwert | 289,3 | 0,8 | 2,2 | 7,8 | 8,0 | 8,3 | 97,3 | 994,9 | 9,2 | 0,0 |
| ▼ Minima | 0,3 | 1,2 | 6,3 | 6,5 | 6,8 | 94,7 | 992,7 | 7,8 | 0,0 | |
| ∑ Summe | 0,0 |
| Uhrzeit (MEZ) | Windrichtung in Grad | Windgeschw. in m/s | Windspitzen in m/s | Temp.Minima in °C | Temperatur in °C | Temp.Maxima in °C | Luftfeuchte in % | Luftdruck in hPa | Taupunkt in °C | Niederschlag in mm |
|---|---|---|---|---|---|---|---|---|---|---|
| 00:00 | 260,0 | 0,7 | 1,7 | 8,6 | 8,8 | 9,1 | 97,5 | 994,6 | 10,1 | 0,0 |
| 00:10 | 268,2 | 0,8 | 1,7 | 8,6 | 8,8 | 9,1 | 97,6 | 994,5 | 10,1 | 0,0 |
| 00:20 | 267,5 | 0,9 | 3,4 | 8,6 | 8,8 | 9,0 | 97,6 | 994,4 | 10,1 | 0,0 |
| 00:30 | 267,9 | 0,8 | 1,9 | 8,6 | 8,8 | 9,0 | 97,7 | 994,4 | 10,0 | 0,0 |
| 00:40 | 267,9 | 0,8 | 1,9 | 8,6 | 8,8 | 9,0 | 97,8 | 994,4 | 10,1 | 0,0 |
| 00:50 | 265,7 | 0,7 | 1,8 | 8,5 | 8,7 | 9,0 | 97,8 | 994,3 | 10,0 | 0,0 |
| 01:00 | 271,2 | 0,6 | 2,2 | 8,5 | 8,7 | 9,0 | 97,8 | 994,3 | 10,1 | 0,0 |
| 01:10 | 262,4 | 0,9 | 2,3 | 8,5 | 8,8 | 9,0 | 97,8 | 994,2 | 10,1 | 0,0 |
| 01:20 | 267,3 | 0,8 | 1,9 | 8,5 | 8,7 | 8,9 | 97,9 | 994,0 | 10,0 | 0,0 |
| 01:30 | 272,4 | 0,9 | 2,0 | 8,5 | 8,7 | 8,9 | 97,9 | 993,9 | 10,0 | 0,0 |
| 01:40 | 265,3 | 0,9 | 2,3 | 8,5 | 8,7 | 8,9 | 98,1 | 993,8 | 10,0 | 0,0 |
| 01:50 | 274,3 | 0,6 | 1,5 | 8,4 | 8,6 | 8,9 | 98,1 | 993,7 | 10,0 | 0,0 |
| 02:00 | 276,4 | 1,0 | 2,6 | 8,5 | 8,7 | 8,9 | 98,0 | 993,7 | 10,0 | 0,0 |
| 02:10 | 279,3 | 0,8 | 2,5 | 8,4 | 8,6 | 8,9 | 98,1 | 993,6 | 9,9 | 0,0 |
| 02:20 | 281,6 | 0,6 | 1,4 | 8,4 | 8,6 | 8,8 | 98,1 | 993,6 | 10,0 | 0,0 |
| 02:30 | 276,4 | 0,5 | 2,1 | 8,4 | 8,6 | 8,9 | 98,1 | 993,7 | 10,0 | 0,0 |
| 02:40 | 259,3 | 0,7 | 2,0 | 8,4 | 8,7 | 9,0 | 97,9 | 993,6 | 10,0 | 0,0 |
| 02:50 | 246,7 | 0,6 | 1,4 | 8,4 | 8,6 | 8,8 | 97,9 | 993,6 | 10,0 | 0,0 |
| 03:00 | 279,3 | 1,0 | 2,1 | 8,4 | 8,6 | 8,9 | 97,7 | 993,5 | 9,9 | 0,0 |
| 03:10 | 259,1 | 0,8 | 2,3 | 8,2 | 8,5 | 8,8 | 97,9 | 993,5 | 9,8 | 0,0 |
| 03:20 | 261,1 | 0,7 | 1,5 | 8,3 | 8,5 | 8,7 | 97,9 | 993,5 | 9,8 | 0,0 |
| 03:30 | 261,1 | 0,8 | 2,1 | 8,2 | 8,5 | 8,8 | 97,9 | 993,4 | 9,8 | 0,0 |
| 03:40 | 284,0 | 0,4 | 1,2 | 8,2 | 8,3 | 8,5 | 98,0 | 993,2 | 9,8 | 0,0 |
| 03:50 | 309,6 | 0,6 | 1,8 | 8,3 | 8,5 | 8,7 | 97,9 | 993,1 | 9,8 | 0,0 |
| 04:00 | 286,9 | 0,5 | 1,3 | 8,2 | 8,4 | 8,6 | 97,8 | 993,0 | 9,8 | 0,0 |
| 04:10 | 297,8 | 0,5 | 1,5 | 8,2 | 8,4 | 8,7 | 97,8 | 992,9 | 9,8 | 0,0 |
| 04:20 | 286,2 | 0,6 | 1,9 | 8,2 | 8,4 | 8,7 | 97,8 | 992,8 | 9,7 | 0,0 |
| 04:30 | 286,6 | 0,7 | 2,9 | 8,1 | 8,4 | 8,7 | 97,9 | 992,7 | 9,7 | 0,0 |
| 04:40 | 277,2 | 0,9 | 2,8 | 8,1 | 8,4 | 8,6 | 97,9 | 992,8 | 9,6 | 0,0 |
| 04:50 | 255,2 | 1,0 | 2,0 | 8,1 | 8,3 | 8,5 | 98,1 | 992,9 | 9,5 | 0,0 |
| 05:00 | 279,9 | 0,8 | 2,7 | 7,9 | 8,2 | 8,4 | 98,2 | 992,9 | 9,5 | 0,0 |
| 05:10 | 268,3 | 0,7 | 2,1 | 8,0 | 8,2 | 8,5 | 98,2 | 992,8 | 9,5 | 0,0 |
| 05:20 | 274,8 | 0,9 | 2,2 | 7,9 | 8,2 | 8,4 | 98,2 | 992,9 | 9,5 | 0,0 |
| 05:30 | 278,2 | 0,7 | 1,5 | 7,8 | 8,1 | 8,2 | 98,2 | 992,8 | 9,4 | 0,0 |
| 05:40 | 265,8 | 0,9 | 2,3 | 7,8 | 8,1 | 8,3 | 98,3 | 992,8 | 9,4 | 0,0 |
| 05:50 | 278,0 | 0,7 | 2,7 | 7,8 | 8,0 | 8,3 | 98,3 | 992,8 | 9,4 | 0,0 |
| 06:00 | 280,6 | 0,9 | 2,5 | 7,8 | 8,1 | 8,3 | 98,2 | 992,7 | 9,4 | 0,0 |
| 06:10 | 268,4 | 0,7 | 2,4 | 7,8 | 8,1 | 8,4 | 98,3 | 992,8 | 9,5 | 0,0 |
| 06:20 | 272,7 | 0,7 | 1,8 | 7,8 | 8,1 | 8,3 | 98,2 | 992,8 | 9,5 | 0,0 |
| 06:30 | 272,6 | 0,7 | 2,2 | 7,9 | 8,1 | 8,4 | 98,2 | 992,7 | 9,5 | 0,0 |
| 06:40 | 265,3 | 1,0 | 2,5 | 8,0 | 8,3 | 8,5 | 98,2 | 992,7 | 9,5 | 0,0 |
| 06:50 | 279,6 | 0,9 | 1,8 | 8,0 | 8,2 | 8,4 | 98,3 | 992,7 | 9,5 | 0,0 |
| 07:00 | 272,3 | 0,8 | 2,3 | 7,9 | 8,2 | 8,5 | 98,3 | 992,7 | 9,6 | 0,0 |
| 07:10 | 266,1 | 0,8 | 2,0 | 8,1 | 8,3 | 8,6 | 98,3 | 992,8 | 9,7 | 0,0 |
| 07:20 | 267,1 | 0,6 | 2,1 | 8,1 | 8,3 | 8,6 | 98,4 | 992,8 | 9,8 | 0,0 |
| 07:30 | 271,9 | 0,5 | 1,3 | 8,2 | 8,4 | 8,7 | 98,4 | 992,9 | 9,9 | 0,0 |
| 07:40 | 316,3 | 0,4 | 1,4 | 8,4 | 8,5 | 8,7 | 98,2 | 992,9 | 10,0 | 0,0 |
| 07:50 | 324,5 | 0,4 | 2,1 | 8,4 | 8,6 | 8,9 | 98,1 | 993,0 | 10,0 | 0,0 |
| Uhrzeit (MEZ) | Windrichtung in Grad | Windgeschw. in m/s | Windspitzen in m/s | Temp.Minima in °C | Temperatur in °C | Temp.Maxima in °C | Luftfeuchte in % | Luftdruck in hPa | Taupunkt in °C | Niederschlag in mm |
|---|---|---|---|---|---|---|---|---|---|---|
| 08:00 | 339,5 | 0,7 | 1,8 | 8,3 | 8,6 | 8,9 | 97,9 | 993,0 | 9,9 | 0,0 |
| 08:10 | 347,6 | 0,7 | 1,5 | 8,3 | 8,5 | 8,7 | 97,9 | 993,0 | 9,8 | 0,0 |
| 08:20 | 334,1 | 0,8 | 2,9 | 8,3 | 8,5 | 8,7 | 97,8 | 993,1 | 9,8 | 0,0 |
| 08:30 | 347,8 | 0,6 | 1,8 | 8,2 | 8,4 | 8,6 | 97,8 | 993,1 | 9,7 | 0,0 |
| 08:40 | 314,8 | 0,4 | 1,2 | 8,4 | 8,5 | 8,7 | 97,9 | 993,2 | 9,9 | 0,0 |
| 08:50 | 328,2 | 0,4 | 1,5 | 8,4 | 8,5 | 8,8 | 97,4 | 993,3 | 9,9 | 0,0 |
| 09:00 | 299,3 | 0,7 | 2,4 | 8,4 | 8,6 | 9,0 | 97,2 | 993,3 | 9,9 | 0,0 |
| 09:10 | 326,8 | 0,5 | 2,1 | 8,4 | 8,6 | 8,8 | 97,3 | 993,4 | 9,9 | 0,0 |
| 09:20 | 26,9 | 0,6 | 2,2 | 8,4 | 8,6 | 8,9 | 97,3 | 993,5 | 9,9 | 0,0 |
| 09:30 | 336,4 | 0,5 | 1,7 | 8,4 | 8,6 | 8,9 | 97,3 | 993,6 | 9,9 | 0,0 |
| 09:40 | 9,2 | 1,0 | 2,2 | 8,4 | 8,6 | 8,9 | 97,1 | 993,6 | 9,7 | 0,0 |
| 09:50 | 12,2 | 0,9 | 2,2 | 8,3 | 8,5 | 8,7 | 97,4 | 993,6 | 9,7 | 0,0 |
| 10:00 | 350,2 | 0,5 | 2,0 | 8,5 | 8,7 | 9,0 | 97,7 | 993,6 | 10,1 | 0,0 |
| 10:10 | 3,8 | 0,5 | 1,6 | 8,6 | 8,8 | 9,0 | 97,4 | 993,7 | 10,1 | 0,0 |
| 10:20 | 283,4 | 0,6 | 2,4 | 8,7 | 8,8 | 9,2 | 97,2 | 993,8 | 10,1 | 0,0 |
| 10:30 | 280,9 | 0,7 | 2,1 | 8,4 | 8,7 | 9,0 | 97,2 | 993,9 | 9,9 | 0,0 |
| 10:40 | 294,1 | 0,6 | 2,3 | 8,6 | 8,8 | 9,1 | 97,5 | 993,9 | 10,1 | 0,0 |
| 10:50 | 287,1 | 0,9 | 2,1 | 8,5 | 8,8 | 9,2 | 97,1 | 993,9 | 10,0 | 0,0 |
| 11:00 | 284,1 | 1,1 | 2,8 | 8,2 | 8,6 | 8,9 | 97,1 | 994,0 | 9,7 | 0,0 |
| 11:10 | 276,7 | 0,9 | 3,2 | 8,3 | 8,5 | 8,8 | 97,6 | 994,1 | 9,8 | 0,0 |
| 11:20 | 284,9 | 0,9 | 2,4 | 8,3 | 8,6 | 8,8 | 97,6 | 994,2 | 9,8 | 0,0 |
| 11:30 | 282,9 | 1,2 | 2,9 | 8,2 | 8,5 | 8,7 | 97,7 | 994,2 | 9,7 | 0,0 |
| 11:40 | 277,8 | 0,7 | 2,9 | 8,3 | 8,5 | 8,8 | 97,9 | 994,2 | 9,9 | 0,0 |
| 11:50 | 281,6 | 1,1 | 3,0 | 8,6 | 8,9 | 9,2 | 97,4 | 994,2 | 10,0 | 0,0 |
| 12:00 | 277,1 | 1,3 | 3,3 | 8,3 | 8,7 | 8,8 | 97,2 | 994,3 | 9,7 | 0,0 |
| 12:10 | 274,7 | 1,0 | 3,0 | 8,3 | 8,7 | 9,0 | 97,2 | 994,5 | 9,8 | 0,0 |
| 12:20 | 273,6 | 0,8 | 3,1 | 8,3 | 8,6 | 8,9 | 97,2 | 994,5 | 9,8 | 0,0 |
| 12:30 | 306,3 | 0,7 | 3,2 | 8,3 | 8,6 | 8,9 | 97,0 | 994,5 | 9,8 | 0,0 |
| 12:40 | 330,2 | 0,7 | 3,2 | 8,4 | 8,6 | 9,0 | 96,9 | 994,6 | 9,8 | 0,0 |
| 12:50 | 320,6 | 0,9 | 2,4 | 8,4 | 8,6 | 8,9 | 96,7 | 994,6 | 9,7 | 0,0 |
| 13:00 | 283,0 | 0,9 | 3,0 | 8,2 | 8,5 | 8,8 | 96,6 | 994,7 | 9,6 | 0,0 |
| 13:10 | 289,1 | 0,9 | 3,1 | 8,1 | 8,4 | 8,6 | 96,8 | 994,7 | 9,5 | 0,0 |
| 13:20 | 320,7 | 0,7 | 1,8 | 8,2 | 8,4 | 8,8 | 97,0 | 994,8 | 9,6 | 0,0 |
| 13:30 | 305,3 | 0,8 | 2,4 | 8,3 | 8,5 | 8,8 | 96,6 | 994,8 | 9,6 | 0,0 |
| 13:40 | 280,5 | 1,0 | 3,0 | 8,2 | 8,5 | 8,7 | 96,4 | 994,8 | 9,5 | 0,0 |
| 13:50 | 284,1 | 0,9 | 3,2 | 8,0 | 8,4 | 8,7 | 96,8 | 994,9 | 9,5 | 0,0 |
| 14:00 | 317,3 | 0,8 | 2,1 | 8,2 | 8,4 | 8,7 | 96,6 | 995,0 | 9,5 | 0,0 |
| 14:10 | 272,8 | 0,7 | 1,8 | 8,2 | 8,4 | 8,7 | 96,6 | 995,1 | 9,5 | 0,0 |
| 14:20 | 299,9 | 0,9 | 2,2 | 8,2 | 8,4 | 8,7 | 96,3 | 995,2 | 9,5 | 0,0 |
| 14:30 | 276,2 | 0,8 | 2,4 | 8,1 | 8,4 | 8,7 | 96,3 | 995,2 | 9,4 | 0,0 |
| 14:40 | 280,9 | 0,9 | 2,6 | 8,2 | 8,4 | 8,7 | 96,1 | 995,2 | 9,4 | 0,0 |
| 14:50 | 285,3 | 1,2 | 3,4 | 7,9 | 8,3 | 8,5 | 95,8 | 995,2 | 9,1 | 0,0 |
| 15:00 | 294,8 | 0,9 | 2,8 | 7,7 | 8,0 | 8,2 | 95,8 | 995,3 | 8,9 | 0,0 |
| 15:10 | 285,4 | 0,9 | 3,2 | 7,7 | 8,0 | 8,4 | 95,8 | 995,3 | 9,0 | 0,0 |
| 15:20 | 280,4 | 1,1 | 2,8 | 7,4 | 7,8 | 8,1 | 95,6 | 995,4 | 8,6 | 0,0 |
| 15:30 | 272,0 | 0,7 | 1,8 | 7,4 | 7,6 | 7,9 | 96,0 | 995,5 | 8,7 | 0,0 |
| 15:40 | 264,3 | 0,8 | 1,9 | 7,5 | 7,8 | 8,1 | 96,1 | 995,5 | 8,8 | 0,0 |
| 15:50 | 264,1 | 1,0 | 2,1 | 7,6 | 7,8 | 8,0 | 96,1 | 995,6 | 8,8 | 0,0 |
| Uhrzeit (MEZ) | Windrichtung in Grad | Windgeschw. in m/s | Windspitzen in m/s | Temp.Minima in °C | Temperatur in °C | Temp.Maxima in °C | Luftfeuchte in % | Luftdruck in hPa | Taupunkt in °C | Niederschlag in mm |
|---|---|---|---|---|---|---|---|---|---|---|
| 16:00 | 277,3 | 1,1 | 3,1 | 7,4 | 7,7 | 7,9 | 96,0 | 995,6 | 8,7 | 0,0 |
| 16:10 | 263,5 | 0,8 | 2,7 | 7,4 | 7,6 | 7,9 | 96,0 | 995,7 | 8,6 | 0,0 |
| 16:20 | 271,2 | 1,0 | 2,7 | 7,3 | 7,6 | 7,9 | 95,8 | 995,7 | 8,6 | 0,0 |
| 16:30 | 263,8 | 1,0 | 2,3 | 7,3 | 7,6 | 7,8 | 95,8 | 995,7 | 8,5 | 0,0 |
| 16:40 | 263,8 | 0,9 | 2,2 | 7,4 | 7,6 | 7,8 | 95,7 | 995,7 | 8,5 | 0,0 |
| 16:50 | 272,0 | 1,0 | 3,2 | 7,2 | 7,5 | 7,7 | 95,3 | 995,8 | 8,3 | 0,0 |
| 17:00 | 271,7 | 1,0 | 3,1 | 7,3 | 7,5 | 7,8 | 95,1 | 995,8 | 8,4 | 0,0 |
| 17:10 | 278,6 | 0,7 | 1,9 | 7,3 | 7,5 | 7,8 | 95,1 | 995,9 | 8,4 | 0,0 |
| 17:20 | 264,7 | 0,7 | 2,2 | 7,3 | 7,6 | 7,9 | 94,9 | 996,0 | 8,4 | 0,0 |
| 17:30 | 277,3 | 0,9 | 2,2 | 7,2 | 7,5 | 7,8 | 94,7 | 996,0 | 8,3 | 0,0 |
| 17:40 | 285,2 | 0,9 | 2,8 | 7,1 | 7,4 | 7,7 | 94,9 | 996,1 | 8,2 | 0,0 |
| 17:50 | 276,1 | 0,9 | 3,0 | 7,0 | 7,4 | 7,6 | 95,5 | 996,1 | 8,3 | 0,0 |
| 18:00 | 271,8 | 0,8 | 2,0 | 6,9 | 7,2 | 7,4 | 96,1 | 996,1 | 8,2 | 0,0 |
| 18:10 | 249,2 | 0,5 | 2,1 | 7,0 | 7,2 | 7,5 | 96,5 | 996,2 | 8,4 | 0,0 |
| 18:20 | 281,0 | 1,0 | 2,4 | 7,0 | 7,3 | 7,6 | 96,4 | 996,2 | 8,3 | 0,0 |
| 18:30 | 274,4 | 0,8 | 2,0 | 7,0 | 7,2 | 7,4 | 96,6 | 996,3 | 8,3 | 0,0 |
| 18:40 | 295,7 | 0,9 | 2,2 | 6,9 | 7,1 | 7,4 | 96,7 | 996,4 | 8,3 | 0,0 |
| 18:50 | 291,1 | 0,9 | 2,2 | 6,9 | 7,1 | 7,3 | 96,9 | 996,5 | 8,3 | 0,0 |
| 19:00 | 265,5 | 0,7 | 2,7 | 6,8 | 7,1 | 7,4 | 97,1 | 996,5 | 8,3 | 0,0 |
| 19:10 | 264,3 | 0,7 | 1,5 | 6,9 | 7,1 | 7,3 | 97,2 | 996,6 | 8,3 | 0,0 |
| 19:20 | 288,1 | 0,7 | 1,9 | 6,9 | 7,1 | 7,4 | 97,2 | 996,7 | 8,4 | 0,0 |
| 19:30 | 255,8 | 1,0 | 2,5 | 7,0 | 7,2 | 7,4 | 97,2 | 996,8 | 8,4 | 0,0 |
| 19:40 | 258,0 | 0,9 | 2,2 | 6,9 | 7,1 | 7,2 | 97,4 | 997,0 | 8,3 | 0,0 |
| 19:50 | 265,7 | 1,0 | 2,3 | 6,8 | 7,0 | 7,2 | 97,6 | 997,0 | 8,2 | 0,0 |
| 20:00 | 285,7 | 0,7 | 2,1 | 6,7 | 6,9 | 7,2 | 97,8 | 997,1 | 8,2 | 0,0 |
| 20:10 | 284,4 | 0,9 | 2,4 | 6,7 | 7,0 | 7,2 | 97,8 | 997,2 | 8,3 | 0,0 |
| 20:20 | 273,9 | 0,8 | 2,3 | 6,7 | 6,9 | 7,2 | 98,0 | 997,3 | 8,3 | 0,0 |
| 20:30 | 276,0 | 0,8 | 2,4 | 6,8 | 6,9 | 7,2 | 98,1 | 997,4 | 8,3 | 0,0 |
| 20:40 | 264,1 | 0,6 | 1,7 | 6,8 | 6,9 | 7,2 | 98,2 | 997,5 | 8,4 | 0,0 |
| 20:50 | 290,2 | 0,5 | 1,4 | 6,8 | 7,0 | 7,2 | 98,2 | 997,6 | 8,4 | 0,0 |
| 21:00 | 271,8 | 0,6 | 1,6 | 6,8 | 7,0 | 7,3 | 98,1 | 997,6 | 8,5 | 0,0 |
| 21:10 | 8,5 | 0,6 | 2,2 | 6,9 | 7,1 | 7,4 | 98,1 | 997,7 | 8,5 | 0,0 |
| 21:20 | 353,8 | 0,5 | 1,9 | 6,9 | 7,0 | 7,4 | 98,0 | 997,8 | 8,5 | 0,0 |
| 21:30 | 332,8 | 0,5 | 1,5 | 6,9 | 7,0 | 7,2 | 97,9 | 997,8 | 8,4 | 0,0 |
| 21:40 | 317,1 | 0,5 | 1,4 | 6,8 | 7,0 | 7,2 | 97,8 | 997,8 | 8,4 | 0,0 |
| 21:50 | 311,6 | 0,6 | 1,8 | 6,8 | 7,0 | 7,2 | 97,7 | 997,7 | 8,3 | 0,0 |
| 22:00 | 316,8 | 0,7 | 1,5 | 6,8 | 7,0 | 7,2 | 97,7 | 997,8 | 8,3 | 0,0 |
| 22:10 | 354,3 | 0,7 | 2,0 | 6,8 | 7,0 | 7,2 | 97,7 | 997,9 | 8,3 | 0,0 |
| 22:20 | 349,7 | 0,9 | 2,4 | 6,7 | 6,9 | 7,1 | 97,6 | 998,0 | 8,2 | 0,0 |
| 22:30 | 356,0 | 0,6 | 1,7 | 6,6 | 6,8 | 7,0 | 97,6 | 998,2 | 8,1 | 0,0 |
| 22:40 | 16,4 | 0,6 | 1,5 | 6,5 | 6,7 | 6,9 | 97,5 | 998,3 | 8,0 | 0,0 |
| 22:50 | 350,1 | 0,6 | 2,3 | 6,4 | 6,6 | 6,9 | 97,4 | 998,3 | 7,9 | 0,0 |
| 23:00 | 354,4 | 0,5 | 1,6 | 6,3 | 6,5 | 6,8 | 97,3 | 998,4 | 7,9 | 0,0 |
| 23:10 | 311,4 | 0,5 | 1,5 | 6,3 | 6,5 | 6,8 | 97,1 | 998,5 | 7,8 | 0,0 |
| 23:20 | 336,3 | 0,3 | 1,6 | 6,4 | 6,5 | 6,8 | 97,1 | 998,6 | 7,9 | 0,0 |
| 23:30 | 336,4 | 0,4 | 1,9 | 6,5 | 6,7 | 7,0 | 96,8 | 998,6 | 8,0 | 0,0 |
| 23:40 | 297,9 | 0,4 | 1,5 | 6,5 | 6,7 | 7,0 | 96,6 | 998,7 | 7,9 | 0,0 |
| 23:50 | 273,8 | 0,7 | 2,1 | 6,4 | 6,7 | 7,0 | 96,6 | 998,8 | 7,8 | 0,0 |
| << 5.5. | 7.5. >> |